Time,TemperatureF,DewpointF,PressureIn,WindDirection,WindDirectionDegrees,WindSpeedMPH,WindSpeedGustMPH,Humidity,HourlyPrecipIn,Conditions,Clouds,dailyrainin,SoftwareType,DateUTC
2013-02-27 00:03:00,39.1,38.0,29.63,WSW,250,0.0,2.0,96,0.04,,,0.00,weatherlink.com 1.10,2013-02-27 05:03:00,
2013-02-27 00:18:00,38.8,38.0,29.63,WSW,249,1.0,1.0,96,0.04,,,0.01,weatherlink.com 1.10,2013-02-27 05:18:00,
2013-02-27 00:33:00,38.7,38.0,29.62,West,260,0.0,1.0,96,0.04,,,0.02,weatherlink.com 1.10,2013-02-27 05:33:00,
2013-02-27 00:48:00,38.6,38.0,29.62,West,261,0.0,1.0,96,0.03,,,0.02,weatherlink.com 1.10,2013-02-27 05:48:00,
2013-02-27 01:03:00,38.6,38.0,29.61,WNW,288,0.0,1.0,96,0.03,,,0.03,weatherlink.com 1.10,2013-02-27 06:03:00,
2013-02-27 01:18:00,38.5,38.0,29.60,WNW,288,0.0,1.0,96,0.03,,,0.04,weatherlink.com 1.10,2013-02-27 06:18:00,
2013-02-27 01:33:00,38.4,37.0,29.59,WNW,288,0.0,0.0,96,0.02,,,0.04,weatherlink.com 1.10,2013-02-27 06:33:00,
2013-02-27 01:47:00,38.4,37.0,29.58,WNW,286,0.0,2.0,96,0.02,,,0.04,weatherlink.com 1.10,2013-02-27 06:47:00,
2013-02-27 02:02:00,38.3,37.0,29.57,WNW,286,0.0,2.0,96,0.01,,,0.04,weatherlink.com 1.10,2013-02-27 07:02:00,
2013-02-27 02:17:00,38.2,37.0,29.56,WNW,291,0.0,2.0,96,0.02,,,0.06,weatherlink.com 1.10,2013-02-27 07:17:00,
2013-02-27 02:33:00,38.0,37.0,29.55,WNW,291,0.0,1.0,96,0.02,,,0.06,weatherlink.com 1.10,2013-02-27 07:33:00,
2013-02-27 02:48:00,37.9,37.0,29.55,WNW,291,0.0,2.0,96,0.02,,,0.06,weatherlink.com 1.10,2013-02-27 07:48:00,
2013-02-27 03:03:00,37.8,37.0,29.53,WNW,292,0.0,1.0,96,0.02,,,0.06,weatherlink.com 1.10,2013-02-27 08:03:00,
2013-02-27 03:18:00,37.8,37.0,29.53,NNW,336,0.0,2.0,96,0.01,,,0.07,weatherlink.com 1.10,2013-02-27 08:18:00,
2013-02-27 03:33:00,37.8,37.0,29.53,NNW,342,0.0,1.0,96,0.01,,,0.07,weatherlink.com 1.10,2013-02-27 08:33:00,
2013-02-27 03:48:00,37.8,37.0,29.54,NNW,342,0.0,1.0,96,0.02,,,0.08,weatherlink.com 1.10,2013-02-27 08:48:00,
2013-02-27 04:03:00,37.9,37.0,29.53,NNW,341,0.0,1.0,97,0.03,,,0.09,weatherlink.com 1.10,2013-02-27 09:03:00,
2013-02-27 04:18:00,38.0,37.0,29.53,NNW,329,1.0,1.0,96,0.02,,,0.09,weatherlink.com 1.10,2013-02-27 09:18:00,
2013-02-27 04:33:00,38.1,37.0,29.54,NNW,329,0.0,1.0,97,0.02,,,0.09,weatherlink.com 1.10,2013-02-27 09:33:00,
2013-02-27 04:48:00,38.2,38.0,29.54,NNW,329,0.0,1.0,97,0.01,,,0.09,weatherlink.com 1.10,2013-02-27 09:48:00,
2013-02-27 05:03:00,38.3,38.0,29.54,NNW,329,0.0,1.0,97,0.00,,,0.09,weatherlink.com 1.10,2013-02-27 10:03:00,
2013-02-27 05:18:00,38.4,38.0,29.53,NNW,329,0.0,0.0,97,0.00,,,0.09,weatherlink.com 1.10,2013-02-27 10:18:00,
2013-02-27 05:33:00,38.5,38.0,29.53,NNW,329,0.0,0.0,97,0.00,,,0.09,weatherlink.com 1.10,2013-02-27 10:33:00,
2013-02-27 05:48:00,38.5,38.0,29.53,NNW,329,0.0,0.0,97,0.00,,,0.09,weatherlink.com 1.10,2013-02-27 10:48:00,
2013-02-27 06:03:00,38.6,38.0,29.54,NNW,329,0.0,0.0,97,0.00,,,0.09,weatherlink.com 1.10,2013-02-27 11:03:00,
2013-02-27 06:18:00,38.7,38.0,29.53,NNW,329,0.0,0.0,97,0.00,,,0.09,weatherlink.com 1.10,2013-02-27 11:18:00,
2013-02-27 06:33:00,38.9,38.0,29.55,NW,314,1.0,3.0,97,0.00,,,0.09,weatherlink.com 1.10,2013-02-27 11:33:00,
2013-02-27 06:48:00,39.2,39.0,29.55,NW,310,0.0,1.0,97,0.00,,,0.09,weatherlink.com 1.10,2013-02-27 11:48:00,
2013-02-27 07:03:00,39.3,39.0,29.55,NW,310,0.0,0.0,97,0.00,,,0.09,weatherlink.com 1.10,2013-02-27 12:03:00,
2013-02-27 07:18:00,39.4,39.0,29.56,NW,310,0.0,0.0,97,0.01,,,0.10,weatherlink.com 1.10,2013-02-27 12:18:00,
2013-02-27 07:33:00,39.7,39.0,29.57,NW,310,0.0,0.0,97,0.01,,,0.10,weatherlink.com 1.10,2013-02-27 12:33:00,
2013-02-27 07:48:00,39.9,39.0,29.57,NW,310,0.0,0.0,97,0.01,,,0.10,weatherlink.com 1.10,2013-02-27 12:48:00,
2013-02-27 08:03:00,40.2,39.0,29.58,NW,310,0.0,1.0,97,0.01,,,0.10,weatherlink.com 1.10,2013-02-27 13:03:00,
2013-02-27 08:18:00,40.1,39.0,29.58,WNW,293,0.0,2.0,97,0.00,,,0.10,weatherlink.com 1.10,2013-02-27 13:18:00,
2013-02-27 08:33:00,40.1,39.0,29.59,WNW,297,0.0,4.0,97,0.00,,,0.10,weatherlink.com 1.10,2013-02-27 13:33:00,
2013-02-27 08:48:00,39.8,39.0,29.60,West,273,5.0,5.0,97,0.00,,,0.10,weatherlink.com 1.10,2013-02-27 13:48:00,
2013-02-27 09:03:00,39.9,39.0,29.60,NW,306,6.0,7.0,97,0.00,,,0.10,weatherlink.com 1.10,2013-02-27 14:03:00,
2013-02-27 09:18:00,41.4,40.0,29.60,NW,305,0.0,6.0,96,0.00,,,0.10,weatherlink.com 1.10,2013-02-27 14:18:00,
2013-02-27 09:33:00,42.2,41.0,29.60,SW,219,2.0,4.0,94,0.00,,,0.10,weatherlink.com 1.10,2013-02-27 14:33:00,
2013-02-27 09:48:00,43.3,41.0,29.61,West,263,0.0,5.0,91,0.00,,,0.10,weatherlink.com 1.10,2013-02-27 14:48:00,
2013-02-27 10:03:00,44.2,41.0,29.61,South,187,0.0,4.0,89,0.00,,,0.10,weatherlink.com 1.10,2013-02-27 15:03:00,
2013-02-27 10:18:00,44.7,41.0,29.61,SE,128,2.0,8.0,87,0.00,,,0.10,weatherlink.com 1.10,2013-02-27 15:18:00,
2013-02-27 10:33:00,44.9,41.0,29.61,SSE,155,2.0,6.0,87,0.00,,,0.10,weatherlink.com 1.10,2013-02-27 15:33:00,
2013-02-27 10:48:00,46.0,43.0,29.61,WSW,246,1.0,2.0,88,0.00,,,0.10,weatherlink.com 1.10,2013-02-27 15:48:00,
2013-02-27 11:03:00,48.1,42.0,29.61,NW,325,0.0,10.0,79,0.00,,,0.10,weatherlink.com 1.10,2013-02-27 16:03:00,
2013-02-27 11:19:00,49.2,42.0,29.61,NNW,333,0.0,10.0,75,0.00,,,0.10,weatherlink.com 1.10,2013-02-27 16:19:00,
2013-02-27 11:34:00,49.6,41.0,29.60,WNW,290,7.0,11.0,73,0.00,,,0.10,weatherlink.com 1.10,2013-02-27 16:34:00,
2013-02-27 11:49:00,49.8,41.0,29.60,NW,307,6.0,12.0,71,0.00,,,0.10,weatherlink.com 1.10,2013-02-27 16:49:00,
2013-02-27 12:04:00,50.1,41.0,29.60,NW,304,2.0,14.0,71,0.00,,,0.10,weatherlink.com 1.10,2013-02-27 17:04:00,
2013-02-27 12:19:00,51.2,41.0,29.59,WNW,294,5.0,10.0,69,0.00,,,0.10,weatherlink.com 1.10,2013-02-27 17:19:00,
2013-02-27 12:34:00,51.5,42.0,29.59,NW,306,0.0,8.0,69,0.00,,,0.10,weatherlink.com 1.10,2013-02-27 17:34:00,
2013-02-27 12:49:00,52.2,41.0,29.59,WSW,252,2.0,10.0,67,0.00,,,0.10,weatherlink.com 1.10,2013-02-27 17:49:00,
2013-02-27 13:04:00,53.3,41.0,29.59,NE,47,4.0,14.0,63,0.00,,,0.10,weatherlink.com 1.10,2013-02-27 18:04:00,
2013-02-27 13:19:00,54.0,41.0,29.58,West,277,2.0,11.0,62,0.00,,,0.10,weatherlink.com 1.10,2013-02-27 18:19:00,
2013-02-27 13:34:00,54.2,41.0,29.59,WNW,295,7.0,11.0,61,0.00,,,0.10,weatherlink.com 1.10,2013-02-27 18:34:00,
2013-02-27 13:49:00,54.6,40.0,29.59,NW,304,2.0,13.0,58,0.00,,,0.10,weatherlink.com 1.10,2013-02-27 18:49:00,
2013-02-27 14:04:00,53.3,38.0,29.60,WNW,298,2.0,12.0,57,0.00,,,0.10,weatherlink.com 1.10,2013-02-27 19:04:00,
2013-02-27 14:19:00,52.4,38.0,29.60,WNW,292,7.0,11.0,58,0.00,,,0.10,weatherlink.com 1.10,2013-02-27 19:19:00,
2013-02-27 14:34:00,52.2,37.0,29.60,West,261,4.0,10.0,57,0.00,,,0.10,weatherlink.com 1.10,2013-02-27 19:34:00,
2013-02-27 14:49:00,51.9,36.0,29.61,NW,306,1.0,12.0,56,0.00,,,0.10,weatherlink.com 1.10,2013-02-27 19:49:00,
2013-02-27 15:04:00,51.6,36.0,29.61,NW,307,5.0,11.0,56,0.00,,,0.10,weatherlink.com 1.10,2013-02-27 20:04:00,
2013-02-27 15:19:00,51.3,36.0,29.61,NW,304,8.0,12.0,56,0.00,,,0.10,weatherlink.com 1.10,2013-02-27 20:19:00,
2013-02-27 15:34:00,51.6,36.0,29.61,WNW,300,4.0,11.0,56,0.00,,,0.10,weatherlink.com 1.10,2013-02-27 20:34:00,
2013-02-27 15:49:00,51.7,36.0,29.61,WNW,292,7.0,9.0,56,0.00,,,0.10,weatherlink.com 1.10,2013-02-27 20:49:00,
2013-02-27 16:04:00,51.5,36.0,29.61,NW,311,2.0,7.0,56,0.00,,,0.10,weatherlink.com 1.10,2013-02-27 21:04:00,
2013-02-27 16:19:00,51.1,36.0,29.61,WNW,287,5.0,11.0,56,0.00,,,0.10,weatherlink.com 1.10,2013-02-27 21:19:00,
2013-02-27 16:34:00,51.3,36.0,29.62,WNW,294,2.0,12.0,56,0.00,,,0.10,weatherlink.com 1.10,2013-02-27 21:34:00,
2013-02-27 16:49:00,50.4,36.0,29.61,WNW,302,5.0,12.0,58,0.00,,,0.10,weatherlink.com 1.10,2013-02-27 21:49:00,
2013-02-27 17:04:00,49.9,35.0,29.62,NW,315,1.0,9.0,58,0.00,,,0.10,weatherlink.com 1.10,2013-02-27 22:04:00,
2013-02-27 17:19:00,49.6,35.0,29.63,NW,304,4.0,10.0,58,0.00,,,0.10,weatherlink.com 1.10,2013-02-27 22:19:00,
2013-02-27 17:34:00,49.3,35.0,29.63,WNW,290,2.0,7.0,59,0.00,,,0.10,weatherlink.com 1.10,2013-02-27 22:34:00,
2013-02-27 17:49:00,49.2,35.0,29.64,NW,311,2.0,8.0,58,0.00,,,0.10,weatherlink.com 1.10,2013-02-27 22:49:00,
2013-02-27 18:04:00,49.0,35.0,29.64,WNW,300,0.0,9.0,60,0.00,,,0.10,weatherlink.com 1.10,2013-02-27 23:04:00,
2013-02-27 18:19:00,48.6,35.0,29.64,NW,313,8.0,8.0,60,0.00,,,0.10,weatherlink.com 1.10,2013-02-27 23:19:00,
2013-02-27 18:34:00,48.6,35.0,29.64,WNW,297,3.0,7.0,60,0.00,,,0.10,weatherlink.com 1.10,2013-02-27 23:34:00,
2013-02-27 18:49:00,48.3,35.0,29.65,West,281,6.0,6.0,61,0.00,,,0.10,weatherlink.com 1.10,2013-02-27 23:49:00,
2013-02-27 19:04:00,48.0,35.0,29.65,West,272,1.0,7.0,62,0.00,,,0.10,weatherlink.com 1.10,2013-02-28 00:04:00,
2013-02-27 19:19:00,47.4,36.0,29.65,WNW,296,0.0,4.0,64,0.00,,,0.10,weatherlink.com 1.10,2013-02-28 00:19:00,
2013-02-27 19:34:00,47.2,35.0,29.65,WNW,303,1.0,5.0,63,0.00,,,0.10,weatherlink.com 1.10,2013-02-28 00:34:00,
2013-02-27 19:49:00,47.2,35.0,29.66,WNW,296,0.0,3.0,63,0.00,,,0.10,weatherlink.com 1.10,2013-02-28 00:49:00,
2013-02-27 20:04:00,47.2,35.0,29.66,NW,311,0.0,5.0,63,0.00,,,0.10,weatherlink.com 1.10,2013-02-28 01:04:00,
2013-02-27 20:19:00,46.9,35.0,29.66,WNW,300,4.0,6.0,64,0.00,,,0.10,weatherlink.com 1.10,2013-02-28 01:19:00,
2013-02-27 20:34:00,46.8,35.0,29.67,WNW,300,3.0,6.0,64,0.00,,,0.10,weatherlink.com 1.10,2013-02-28 01:34:00,
2013-02-27 20:49:00,46.9,35.0,29.66,WNW,289,1.0,6.0,64,0.00,,,0.10,weatherlink.com 1.10,2013-02-28 01:49:00,
2013-02-27 21:04:00,46.9,35.0,29.66,NW,307,0.0,4.0,64,0.00,,,0.10,weatherlink.com 1.10,2013-02-28 02:04:00,
2013-02-27 21:19:00,46.7,35.0,29.66,NW,304,0.0,3.0,65,0.00,,,0.10,weatherlink.com 1.10,2013-02-28 02:19:00,
2013-02-27 21:34:00,46.4,35.0,29.66,WNW,301,0.0,3.0,65,0.00,,,0.10,weatherlink.com 1.10,2013-02-28 02:34:00,
2013-02-27 21:49:00,46.3,35.0,29.65,WNW,302,0.0,2.0,65,0.00,,,0.10,weatherlink.com 1.10,2013-02-28 02:49:00,
2013-02-27 22:04:00,46.1,36.0,29.64,WNW,302,0.0,4.0,68,0.00,,,0.10,weatherlink.com 1.10,2013-02-28 03:04:00,
2013-02-27 22:19:00,45.2,36.0,29.64,WNW,302,0.0,1.0,70,0.00,,,0.10,weatherlink.com 1.10,2013-02-28 03:19:00,
2013-02-27 22:34:00,44.5,36.0,29.64,WNW,302,0.0,0.0,71,0.00,,,0.10,weatherlink.com 1.10,2013-02-28 03:34:00,
2013-02-27 22:49:00,43.8,36.0,29.64,WNW,302,0.0,0.0,74,0.00,,,0.10,weatherlink.com 1.10,2013-02-28 03:49:00,
2013-02-27 23:04:00,43.2,36.0,29.63,WNW,302,0.0,0.0,75,0.00,,,0.10,weatherlink.com 1.10,2013-02-28 04:04:00,
2013-02-27 23:34:00,42.0,36.0,29.63,WNW,302,0.0,0.0,80,0.00,,,0.10,weatherlink.com 1.10,2013-02-28 04:34:00,
2013-02-27 23:49:00,41.5,36.0,29.62,WNW,302,0.0,0.0,81,0.00,,,0.10,weatherlink.com 1.10,2013-02-28 04:49:00,